Weather History for Charlottetown, PE

Change the Weather History Date:

Wednesday, January 23, 2013

  Actual Average Record
Temperature  
Mean Temperature -0 °F -  
Max Temperature 1 °F 26 °F 44 °F (1997)
Min Temperature -4 °F 10 °F -4 °F (2013)
Degree Days  
Heating Degree Days 66    
Moisture  
Dew Point -12 °F    
Average Humidity 54    
Maximum Humidity 66    
Minimum Humidity 33    
Precipitation  
Precipitation 0.00 in 0.12 in - ()
Sea Level Pressure  
Sea Level Pressure 29.75 in    
Wind  
Wind Speed 11 mph ()    
Max Wind Speed 26 mph    
Max Gust Speed 38 mph    
Visibility 15.0 miles    
Events      
Averages and records for this station are not official NWS values.
T = Trace of Precipitation, MM = Missing Value Source: Averaged Metar Reports

Daily Weather History Graph

Daily Weather History Graph

Search for Another Location

Airport:

Trip Planner

Search our weather history database for the weather conditions in past years. The results will help you decide how hot, cold, wet, or windy it might be!

Date:

Astronomy

Jan. 23, 2013 Rise Set
Actual Time 7:45 AM AST 5:04 PM AST
Civil Twilight 7:12 AM AST 5:37 PM AST
Nautical Twilight 6:35 AM AST 6:13 PM AST
Astronomical Twilight 5:59 AM AST 6:49 PM AST
Moon 2:08 PM AST (1/23) 4:55 AM AST (1/23)
Length of Visible Light 10h 25m
Length of Day
9h 19m
Waxing Gibbous, 89% of the Moon is Illuminated
Jan 23
Waxing Gibbous
Jan 27
Full
Feb 3
Last Quarter
Feb 10
New
Feb 17
First Quarter

Hourly Weather History & Observations

Time (AST) Temp. Windchill Dew Point Humidity Pressure Visibility Wind Dir Wind Speed Gust Speed Precip Events Conditions
12:00 AM 3.2 °F -12.2 °F -9.4 °F 56% 29.79 in 15.0 mi West 10.4 mph 17.3 mph N/A   Partly Cloudy
1:00 AM 1.4 °F -9.9 °F -9.4 °F 61% 29.79 in 15.0 mi West 5.8 mph - N/A   Partly Cloudy
2:00 AM 1 °F - -9 °F 46% 29.79 in 15 mi West 9.2 mph - -   Scattered Clouds
2:00 AM 1.4 °F -12.5 °F -9.4 °F 61% 29.79 in 15.0 mi WNW 8.1 mph - N/A   Partly Cloudy
3:00 AM 1.4 °F -11.3 °F -9.4 °F 61% 29.80 in 15.0 mi West 6.9 mph - N/A   Clear
4:00 AM -0.4 °F -12.0 °F -11.2 °F 60% 29.79 in 15.0 mi SSW 5.8 mph - N/A   Clear
5:00 AM -0.4 °F -12.0 °F -9.4 °F 66% 29.77 in 15.0 mi SW 5.8 mph - N/A   Clear
6:00 AM -0.4 °F -19.2 °F -9.4 °F 66% 29.78 in 15.0 mi WSW 13.8 mph - N/A   Clear
7:00 AM -0.4 °F -18.4 °F -11.2 °F 60% 29.78 in 15.0 mi West 12.7 mph - N/A   Partly Cloudy
8:00 AM -1 °F - -10 °F 49% 29.78 in 15 mi WSW 11.5 mph - -   Scattered Clouds
8:00 AM -0.4 °F -17.6 °F -11.2 °F 60% 29.78 in 15.0 mi WSW 11.5 mph - N/A   Partly Cloudy
9:00 AM -0.4 °F -20.5 °F -11.2 °F 60% 29.79 in 15.0 mi WSW 16.1 mph 25.3 mph N/A   Partly Cloudy
10:00 AM -0.4 °F -22.8 °F -13.0 °F 55% 29.79 in 15.0 mi West 20.7 mph 28.8 mph N/A   Partly Cloudy
11:00 AM -0.4 °F -19.2 °F -13.0 °F 55% 29.78 in 15.0 mi West 13.8 mph 27.6 mph N/A   Partly Cloudy
12:00 PM -0.4 °F -25.2 °F -14.8 °F 51% 29.75 in 15.0 mi West 26.5 mph 38.0 mph N/A   Partly Cloudy
1:00 PM -0.4 °F -21.2 °F -14.8 °F 51% 29.73 in 15.0 mi WSW 17.3 mph 29.9 mph N/A   Partly Cloudy
2:00 PM 1 °F - -14 °F 33% 29.70 in 15 mi WSW 18.4 mph - -   Scattered Clouds
2:00 PM 1.4 °F -21.0 °F -13.0 °F 51% 29.70 in 15.0 mi WSW 21.9 mph 28.8 mph N/A   Partly Cloudy
3:00 PM 1.4 °F -17.6 °F -13.0 °F 51% 29.70 in 15.0 mi WSW 15.0 mph 27.6 mph N/A   Partly Cloudy
4:00 PM 1.4 °F -16.1 °F -13.0 °F 51% 29.70 in 15.0 mi West 12.7 mph 27.6 mph N/A   Partly Cloudy
5:00 PM -0.4 °F -20.5 °F -14.8 °F 51% 29.71 in 15.0 mi WSW 16.1 mph 24.2 mph N/A   Partly Cloudy
6:00 PM -0.4 °F -19.2 °F -14.8 °F 51% 29.70 in 15.0 mi WSW 13.8 mph 26.5 mph N/A   Partly Cloudy
7:00 PM -2.2 °F -22.2 °F -14.8 °F 55% 29.70 in 15.0 mi WSW 15.0 mph 20.7 mph N/A   Partly Cloudy
8:00 PM -2 °F - -16 °F 36% 29.70 in 15 mi WSW 15.0 mph - -   Scattered Clouds
8:00 PM -2.2 °F -21.5 °F -14.8 °F 55% 29.70 in 15.0 mi WSW 13.8 mph 24.2 mph N/A   Partly Cloudy
10:00 PM -2.2 °F -24.1 °F -14.8 °F 55% 29.70 in 15.0 mi West 18.4 mph 27.6 mph N/A   Partly Cloudy
11:00 PM -4.0 °F -25.2 °F -14.8 °F 60% 29.71 in 15.0 mi West 16.1 mph - N/A   Partly Cloudy